2023/01/24 00:00:00,24.7, 1.5
2023/01/24 00:10:00,24.8, 1.2
2023/01/24 00:20:00,24.8, 0.9
2023/01/24 00:30:00,24.8, 1.4
2023/01/24 00:40:00,24.7, 1.7
2023/01/24 00:50:00,24.7, 1.4
2023/01/24 01:00:00,24.7, 1.4
2023/01/24 01:10:00,24.7, 1.4
2023/01/24 01:20:00,24.7, 1.3
2023/01/24 01:30:00,24.7, 1.4
2023/01/24 01:40:00,24.7, 1.4
2023/01/24 01:50:00,24.7, 1.5
2023/01/24 02:00:00,24.7, 1.6
2023/01/24 02:10:00,24.7, 1.6
2023/01/24 02:20:00,24.7, 1.7
2023/01/24 02:30:00,24.8, 2.1
2023/01/24 02:40:00,24.8, 2.3
2023/01/24 02:50:00,24.8, 2.4
2023/01/24 03:00:00,24.8, 2.4
2023/01/24 03:10:00,24.8, 2.3
2023/01/24 03:20:00,24.8, 2.4
2023/01/24 03:30:00,24.8, 2.2
2023/01/24 03:40:00,24.8, 2.0
2023/01/24 03:50:00,25.0, 1.9
2023/01/24 04:00:00,24.9, 1.2
2023/01/24 04:10:00,25.0, 1.5
2023/01/24 04:20:00,24.9, 1.2
2023/01/24 04:30:00,24.9, 1.2
2023/01/24 04:40:00,24.9, 0.8
2023/01/24 04:50:00,24.6, 0.6
2023/01/24 05:00:00,24.6, 0.6
2023/01/24 05:10:00,24.6, 0.4
2023/01/24 05:20:00,24.6, 0.3
2023/01/24 05:30:00,24.6, 0.4
2023/01/24 05:40:00,24.6, 0.6
2023/01/24 05:50:00,24.7, 0.6
2023/01/24 06:00:00,24.9, 0.8
2023/01/24 06:10:00,24.8, 0.7
2023/01/24 06:20:00,24.8, 1.1
2023/01/24 06:30:00,25.1, 0.5
2023/01/24 06:40:00,25.8, 0.7
2023/01/24 06:50:00,26.2, 0.9
2023/01/24 07:00:00,26.2, 1.3
2023/01/24 07:10:00,26.6, 0.7
2023/01/24 07:20:00,26.7, 0.9
2023/01/24 07:30:00,26.8, 0.9
2023/01/24 07:40:00,26.7, 0.8
2023/01/24 07:50:00,26.9, 0.8
2023/01/24 08:00:00,27.2, 0.6
2023/01/24 08:10:00,27.5, 0.6
2023/01/24 08:20:00,27.8, 0.9
2023/01/24 08:30:00,27.9, 0.6
2023/01/24 08:40:00,28.0, 0.3
2023/01/24 08:50:00,28.9, 0.7
2023/01/24 09:00:00,29.7, 0.6
2023/01/24 09:10:00,30.3, 0.4
2023/01/24 09:20:00,30.6, 0.2
2023/01/24 09:30:00,31.0, 0.1
2023/01/24 09:40:00,31.5,-0.1
2023/01/24 09:50:00,32.4,-0.1
2023/01/24 10:00:00,33.4,-0.1
2023/01/24 10:10:00,33.5,-0.4
2023/01/24 10:20:00,33.9,-0.3
2023/01/24 10:30:00,34.2,-0.2
2023/01/24 10:40:00,34.5, 0.2
2023/01/24 10:50:00,35.1,-0.6
2023/01/24 11:00:00,36.2,-0.8
2023/01/24 11:10:00,37.3,-0.7
2023/01/24 11:20:00,37.7,-0.9
2023/01/24 11:30:00,37.6,-1.1
2023/01/24 11:40:00,38.1,-1.1
2023/01/24 11:50:00,39.5,-0.2
2023/01/24 12:00:00,39.6,-0.6
2023/01/24 12:10:00,39.8,-1.1
2023/01/24 12:20:00,39.9,-1.1
2023/01/24 12:30:00,40.0,-1.3
2023/01/24 12:40:00,40.0,-0.9
2023/01/24 12:50:00,40.0,-0.8
2023/01/24 13:00:00,39.9,-1.6
2023/01/24 13:10:00,39.9,-1.5
2023/01/24 13:20:00,39.9,-0.7
2023/01/24 13:30:00,39.8,-0.7
2023/01/24 13:40:00,39.8,-0.7
2023/01/24 13:50:00,39.8,-0.9
2023/01/24 14:00:00,39.8, 0.1
2023/01/24 14:10:00,39.8, 0.5
2023/01/24 14:20:00,39.7, 0.4
2023/01/24 14:30:00,39.7,-2.1
2023/01/24 14:40:00,39.7,-3.0
2023/01/24 14:50:00,39.6,-3.7
2023/01/24 15:00:00,39.8,-3.9
2023/01/24 15:10:00,40.3,-3.9
2023/01/24 15:20:00,40.6,-4.0
2023/01/24 15:30:00,41.3,-3.9
2023/01/24 15:40:00,43.4,-3.9
2023/01/24 15:50:00,46.2,-4.1
2023/01/24 16:00:00,48.3,-3.7
2023/01/24 16:10:00,50.0,-4.1
2023/01/24 16:20:00,51.7,-4.3
2023/01/24 16:30:00,53.2,-4.2
2023/01/24 16:40:00,54.5,-4.5
2023/01/24 16:50:00,55.5,-4.5
2023/01/24 17:00:00,56.2,-4.4
2023/01/24 17:10:00,56.9,-4.6
2023/01/24 17:20:00,57.7,-4.6
2023/01/24 17:30:00,58.3,-4.4
2023/01/24 17:40:00,59.2,-4.3
2023/01/24 17:50:00,60.1,-4.3
2023/01/24 18:00:00,61.4,-4.3
2023/01/24 18:10:00,62.5,-4.5
2023/01/24 18:20:00,63.3,-4.6
2023/01/24 18:30:00,64.4,-4.5
2023/01/24 18:40:00,65.4,-4.6
2023/01/24 18:50:00,65.8,-4.8
2023/01/24 19:00:00,66.7,-5.0
2023/01/24 19:10:00,67.3,-5.0
2023/01/24 19:20:00,67.3,-5.1
2023/01/24 19:30:00,67.4,-4.9
2023/01/24 19:40:00,67.9,-4.8
2023/01/24 19:50:00,68.2,-4.9
2023/01/24 20:00:00,69.1,-5.4
2023/01/24 20:10:00,69.3,-5.3
2023/01/24 20:20:00,69.7,-5.3
2023/01/24 20:30:00,70.4,-5.3
2023/01/24 20:40:00,70.6,-5.0
2023/01/24 20:50:00,70.9,-5.5
2023/01/24 21:00:00,71.2,-5.5
2023/01/24 21:10:00,71.4,-5.8
2023/01/24 21:20:00,72.0,-5.8
2023/01/24 21:30:00,72.5,-5.8
2023/01/24 21:40:00,72.8,-6.4
2023/01/24 21:50:00,72.9,-5.7
2023/01/24 22:00:00,73.4,-5.6
2023/01/24 22:10:00,73.6,-5.9
2023/01/24 22:20:00,73.7,-5.6
2023/01/24 22:30:00,73.9,-6.1
2023/01/24 22:40:00,74.3,-5.7
2023/01/24 22:50:00,74.5,-5.7
2023/01/24 23:00:00,74.6,-5.7
2023/01/24 23:10:00,74.8,-6.0
2023/01/24 23:20:00,74.9,-6.0
2023/01/24 23:30:00,75.4,-6.4
2023/01/24 23:40:00,75.6,-5.9
2023/01/24 23:50:00,76.2,-5.8
